Regional Weather Roundup
Issued by NWS Cleveland, OH

Home | Current Version | Previous Version | Text Only | Print | Product List | Glossary Off
Versions: 1 2 3 4 5 6 7 8 9 10 11 12 13 14 15 16 17 18 19 20 21 22 23 24 25 26 27 28 29 30 31 32 33 34 35 36 37 38 39 40 41 42 43 44 45 46 47 48 49 50

000
ASUS41 KCLE 311000
RWRCLE
OHIO REGIONAL WEATHER ROUNDUP
NATIONAL WEATHER SERVICE WILMINGTON, OH
600 AM EDT MON AUG 31 2015

NOTE: "FAIR" INDICATES FEW OR NO CLOUDS BELOW 12,000 FEET WITH NO
SIGNIFICANT WEATHER AND/OR OBSTRUCTIONS TO VISIBILITY.

OHZ001>008-015>018-024>027-034-035-043-044-311100-
   NORTHWEST OHIO

CITY           SKY/WX    TMP DP  RH WIND       PRES   REMARKS
DEFIANCE       FOG       66  64  93 CALM      30.06R VSB 1/4
FINDLAY        CLEAR     64  63  96 SW5       30.05R FOG
TOLEDO EXPRESS CLEAR     64  64 100 CALM      30.04S
TOLEDO EXEC    CLEAR     67  64  90 CALM      30.05S
LIMA           CLEAR     65  64  97 S6        30.07R FOG
$$

OHZ009>014-019>023-028>033-038-089-311100-
   NORTHEAST OHIO

CITY           SKY/WX    TMP DP  RH WIND       PRES   REMARKS
CLE-HOPKINS    PTCLDY    67  64  90 SW5       30.07S
CLE-LAKEFRONT  CLEAR     71  64  78 S6        30.04S
CUY CO. ARPT   NOT AVBL
LORAIN-ELYRIA  CLEAR     65  63  93 S5        30.06S
ASHTABULA      CLEAR     65  65 100 CALM      30.07S
AKRON-CANTON   CLEAR     66  63  90 S6        30.08S
WOOSTER        NOT AVBL
MANSFIELD      CLEAR     65  63  93 S7        30.08S
YOUNGSTOWN     PTCLDY    66  63  90 CALM      30.08R
$$

OHZ042-051>053-060>062-070>072-077>081-311100-
  SOUTHWEST OHIO

CITY           SKY/WX    TMP DP  RH WIND       PRES   REMARKS
CINC-COVINGTON CLEAR     67  65  93 CALM      30.09R
CINC-LUNKEN    CLEAR     64  64 100 CALM      30.09R FOG
HAMILTON       CLEAR     64  63  96 CALM      30.09R FOG
DAYTON         NOT AVBL
WRIGHT-PAT AFB CLEAR     65  65 100 E2        30.08R
DAYTON GENERAL CLEAR     67  65  93 S3        30.08S
WILMINGTON     CLEAR     63  61  93 S3        30.09R FOG
$$

OHZ036-037-039>041-045>050-054>059-063>069-073>076-082>088-311100-
  CENTRAL AND SOUTHEAST OHIO

CITY           SKY/WX    TMP DP  RH WIND       PRES   REMARKS
COLUMBUS       PTCLDY    67  66  97 CALM      30.07S
OSU AIRPORT    CLEAR     68  65  90 CALM      30.07F
BOLTON FIELD   NOT AVBL
RICKENBACK AFB NOT AVBL
NEWARK         FOG       63  62  97 CALM      30.08S VSB 1/2
MARION         CLEAR     64  62  93 CALM      30.08R FOG
LANCASTER      FOG       62  60  93 CALM      30.08S VSB 1/2
ZANESVILLE     MOCLDY    65  62  90 CALM      30.08S FOG
NEW PHILLY     PTCLDY    64  63  96 CALM      30.08F FOG
$$


USA.gov is the U.S. government's official web portal to all federal, state and local government web resources and services.